Regional Weather Roundup
Issued by NWS

Home | Current Version | Previous Version | Text Only | Print | Product List | Glossary Off
Versions: 1 2 3 4 5 6 7 8 9 10 11 12 13 14 15 16 17 18 19 20 21 22 23 24 25 26 27 28 29 30 31 32 33 34 35 36 37 38 39 40 41 42 43 44 45 46 47 48 49 50

000
ASUS45 KCYS 010710
RWRWY

WYOMING REGIONAL WEATHER ROUNDUP
NATIONAL WEATHER SERVICE CHEYENNE WY
100 AM MDT TUE SEP 01 2015

NOTE:  "FAIR" INDICATES FEW OR NO CLOUDS BELOW 12,000 FEET
WITH NO SIGNIFICANT WEATHER AND/OR OBSTRUCTIONS TO VISIBILITY.

WYZ001-010800-
YELLOWSTONE NATIONAL PARK

CITY           SKY/WX    TMP DP  RH WIND       PRES   REMARKS
LK YELLOWSTONE   N/A     36  27  69 NW3       30.22F
W YELLOWSTONE  NOT AVBL

$$
WYZ002>013-054>058-071-098>099-010800-
NORTHERN WYOMING

CITY           SKY/WX    TMP DP  RH WIND       PRES   REMARKS
JACKSON        FAIR      43  30  61 N8        30.14S
CODY           FAIR      61  28  29 S9        29.98S
GREYBULL       FAIR      62  31  31 SE5       29.91R
WORLAND        FAIR      58  31  35 S6        29.94S
SHERIDAN       FAIR      56  44  64 SE3       29.93F
BUFFALO        FAIR      63  40  42 W10       29.99F
GILLETTE       FAIR      51  48  89 CALM      29.93S
HULETT         FAIR      55  54  94 E5        29.96S
NEWCASTLE      FAIR      68  43  40 SE15      29.97S

$$
WYZ014>020-022>026-101>103-010800-
CENTRAL WYOMING

CITY           SKY/WX    TMP DP  RH WIND       PRES   REMARKS
BIG PINEY      FAIR      41  25  53 NW6       30.20S
PINEDALE       FAIR      39  30  70 W6        30.21S WCI  35
DUBOIS         FAIR      46  25  42 W15       30.16S
LANDER         FAIR      61  25  25 S5        30.04F
RIVERTON       FAIR      60  24  25 SW7       30.05S
CASPER         FAIR      64  39  39 SW14      30.04S
DOUGLAS        FAIR      58  41  53 E7        30.03R

$$
WYZ021-027>030-104>119-010800-
SOUTHERN WYOMING

CITY           SKY/WX    TMP DP  RH WIND       PRES   REMARKS
EVANSTON       FAIR      61  36  39 S3        30.20S
KEMMERER       FAIR      54  27  35 CALM      30.22R
FORT BRIDGER   SUNNY     57  41  54 S10       30.22S
ROCK SPRINGS   FAIR      60  40  47 SW12      30.18S
DIXON          FAIR      51  46  84 NE3       30.24S
RAWLINS        FAIR      61  40  45 S12       30.19R
SARATOGA       FAIR      54  45  71 SE13      30.22F
LARAMIE        FAIR      50  43  77 SE9       30.22S
CHEYENNE       FAIR      56  46  69 CALM      30.15S
TORRINGTON     FAIR      64  48  56 SW7       30.00S
PINE BLUFFS    FAIR      54  48  82 SE3       30.11S

$$


USA.gov is the U.S. government's official web portal to all federal, state and local government web resources and services.